Location: NJAA Observatory
(40.6819°N, 74.8979°W)
Time: 04:31:32
(UTC-04:00)

Cosmos 2263 Rocket - Visible Passes

Search period start: 26 October 2014 00:00
Search period end: 04 November 2014 23:00
Orbit: 825 x 848 km, 71.0° (Epoch: 25 October)

Date Brightness Start Highest point End Pass type
(mag) Time Alt. Az. Time Alt. Az. Time Alt. Az.
28 Oct 3.9 06:43:43 10° S 06:48:47 38° ESE 06:53:52 10° NE visible
29 Oct 4.0 06:27:14 10° SSE 06:32:11 35° ESE 06:37:10 10° NE visible
30 Oct 4.1 06:10:46 10° SSE 06:15:36 32° ESE 06:20:27 10° NE visible
31 Oct 4.2 05:54:19 10° SSE 05:59:01 29° ESE 06:03:44 10° NE visible
01 Nov 4.3 05:37:52 10° SSE 05:42:26 27° ESE 05:47:00 10° NE visible
02 Nov 4.4 04:21:28 10° SSE 04:25:51 25° ESE 04:30:15 10° NE visible
03 Nov 4.5 04:05:04 10° SSE 04:09:16 23° E 04:13:29 10° NE visible
03 Nov 2.4 05:47:28 10° SW 05:52:48 48° WNW 05:58:12 10° NNE visible
04 Nov 4.5 03:48:42 10° SSE 03:52:41 21° E 03:56:42 10° NE visible
04 Nov 2.3 05:30:46 10° SW 05:36:10 53° WNW 05:41:36 10° NNE visible
